Find DirecTV 2

NORAD ID: 23192 Int'l Des: 1994-047 Owner: DTV/HCI Country: US operational
HEOCIRCULAR

リアルタイム位置

3D地球を読み込み中...

DirecTV 2について

説明を読み込み中...

次回通過

Passes for default location (London). Set your location on the main map for personalized predictions.

高度履歴

Loading altitude history...

軌道要素

1 23192U 94047A 26105.54836506 -.00000200 00000-0 00000-0 0 9995
2 23192 12.8259 26.9318 0012172 337.0480 213.2394 0.98636252125040
Epoch: Apr 15, 2026 • Age: 24 hours

現在のステータス

高度 36295.0 km
速度 3.05 km/s
衛星直下点 -2.27°S, 169.8°E
打ち上げ日 Aug 3, 1994
運用期間 31.7 years
タイプ other

技術仕様

分類 Payload
質量 2921.00 kg
乾燥質量 1200.00 kg
総質量 2921.00 kg
長さ 4.00 m
直径 2.80 m
スパン 21.00 m
形状 Box + 2 Pan
製造者 HSES
バスタイプ HS-601
フェーズステータス Unknown Active Status
所有者/国 DTV/HCI/US

Most Searched